User: anonymous   Login
Location: Oracle State Park
(32.6095°N, 110.7330°W)
Time: 22:37:57
(UTC-07:00)
Language:

EO-88 - Orbit

View from above orbital plane
View from above orbital plane
View from above satellite
View from above satellite

Ground track
Ground track

The orbit data is extracted from the following two-line orbital elements,

1 42017U 17008BX  19320.15290197  .00001487  00000-0  60824-4 0  9993
2 42017  97.3874  25.5910 0006379  14.4787 345.6632 15.25895069152863
Epoch (UTC): 16 November 2019 03:40:10
Eccentricity: 0.0006379
inclination: 97.3874°
perigee height: 484 km
apogee height: 492 km
right ascension of ascending node: 25.5910°
argument of perigee: 14.4787°
revolutions per day: 15.25895069
mean anomaly at epoch: 345.6632°
orbit number at epoch: 15286

The dashed part of the orbit path shows where the satellite is in the earth's shadow,  

DLR